Location: Unspecified
(0.0000°N, 0.0000°E)
Time: 05:51:38
(UTC+00:00)

Transit 2A Rocket - Pass Details

Date: 20 December 2018
Orbit: 586 x 917 km, 66.7° (Epoch: 17 June)

Event Time Altitude Azimuth Distance (km) Brightness Sun altitude
Rises 05:10:19 0° 190° (S) 2,814 8.1 -10.8°
Reaches altitude 10° 05:12:36 10° 184° (S) 1,906 7.3 -10.3°
Maximum altitude 05:16:41 48° 110° (ESE) 776 5.6 -9.3°
Drops below altitude 10° 05:20:52 10° 35° (NE) 1,948 7.3 -8.4°
Sets 05:23:13 0° 30° (NNE) 2,882 8.1 -7.8°
